Location: �bnet
(46.9957°N, 8.4908°E)
Time: 04:00:01
(UTC+00:00)

Cosmos 2084 Rocket - Pass Details

Date: 11 May 2021
Orbit: 521 x 659 km, 62.8° (Epoch: 23 June)

Event Time Altitude Azimuth Distance (km) Brightness Sun altitude
Rises 21:52:09 0° 321° (NW) 2,769 8.2 -21.8°
Reaches altitude 10° 21:54:22 10° 325° (NW) 1,891 7.1 -21.9°
Maximum altitude 21:58:36 60° 46° (NE) 681 3.8 -22.2°
Enters shadow 21:59:21 51° 90° (E) 752 3.8 -22.3°
